EZY42VZ EGKK-LPMA

Flight info

Callsign EZY42VZ
Flight time N/A
Altitude 35000
Route NOVMA L620 SAM M195 LORKU DCT EBOMO DCT KORUL DCT DEMOS DCT XANEL DCT OBESA DCT PECKY DCT LIDRO
Aircraft A320/M-SDE3FGHIRWY/LB1

Departure

Time 2026-04-18 10:53
Airport London Gatwick Airport (EGKK)

Arrival

Time N/A
Airport Cristiano Ronaldo International Airport (LPMA)
Time Latitude Longitude Altitude Speed Heading
2026-04-18 10:19 51.15838 -0.17631 209 ft 0 kts 348°
2026-04-18 10:43 51.15826 -0.17627 213 ft 3 kts 349°
2026-04-18 10:44 51.15806 -0.17622 210 ft 3 kts 352°
2026-04-18 10:44 51.15786 -0.17618 214 ft 3 kts 358°
2026-04-18 10:44 51.15766 -0.17619 211 ft 3 kts 12°
2026-04-18 10:44 51.15749 -0.17629 205 ft 3 kts 49°
2026-04-18 10:45 51.15743 -0.17641 211 ft 0 kts 77°
2026-04-18 10:47 51.15748 -0.17609 212 ft 4 kts 77°
2026-04-18 10:47 51.15739 -0.17513 216 ft 10 kts 138°
2026-04-18 10:48 51.15680 -0.17485 206 ft 8 kts 167°
2026-04-18 10:48 51.15626 -0.17465 209 ft 9 kts 169°
2026-04-18 10:48 51.15572 -0.17447 211 ft 7 kts 168°
2026-04-18 10:48 51.15523 -0.17430 203 ft 11 kts 167°
2026-04-18 10:49 51.15434 -0.17399 207 ft 13 kts 167°
2026-04-18 10:49 51.15350 -0.17370 206 ft 11 kts 167°
2026-04-18 10:49 51.15279 -0.17345 206 ft 10 kts 167°
2026-04-18 10:49 51.15222 -0.17286 210 ft 8 kts 147°
2026-04-18 10:50 51.15183 -0.17232 210 ft 6 kts 119°
2026-04-18 10:50 51.15184 -0.17171 206 ft 5 kts 82°
2026-04-18 10:50 51.15193 -0.17097 207 ft 7 kts 77°
2026-04-18 10:50 51.15204 -0.17024 209 ft 7 kts 77°
2026-04-18 10:51 51.15221 -0.16897 209 ft 12 kts 81°
2026-04-18 10:51 51.15190 -0.16796 210 ft 10 kts 155°
2026-04-18 10:51 51.15126 -0.16799 210 ft 9 kts 219°
2026-04-18 10:51 51.15116 -0.16849 203 ft 3 kts 256°
2026-04-18 10:52 51.15100 -0.16953 210 ft 24 kts 257°
2026-04-18 10:52 51.15013 -0.17592 217 ft 91 kts 257°
2026-04-18 10:52 51.14835 -0.18882 206 ft 144 kts 257°
2026-04-18 10:52 51.14597 -0.20557 628 ft 153 kts 258°
2026-04-18 10:53 51.14374 -0.22199 1373 ft 151 kts 263°
2026-04-18 10:53 51.14164 -0.23929 1715 ft 169 kts 262°
2026-04-18 10:53 51.13940 -0.25881 1976 ft 189 kts 263°
2026-04-18 10:53 51.13691 -0.28040 2291 ft 209 kts 262°
2026-04-18 10:54 51.13408 -0.30459 2616 ft 234 kts 262°
2026-04-18 10:54 51.13114 -0.33071 3254 ft 244 kts 262°
2026-04-18 10:54 51.12824 -0.35769 4026 ft 249 kts 262°
2026-04-18 10:54 51.12535 -0.38494 4869 ft 251 kts 262°
2026-04-18 10:55 51.12258 -0.41262 5632 ft 256 kts 262°
2026-04-18 10:55 51.11977 -0.44151 5939 ft 277 kts 262°
2026-04-18 10:55 51.11674 -0.47352 6007 ft 307 kts 262°
2026-04-18 10:55 51.11344 -0.50875 6010 ft 336 kts 262°
2026-04-18 10:56 51.10989 -0.54669 6009 ft 353 kts 262°
2026-04-18 10:56 51.10627 -0.58569 6092 ft 359 kts 262°
2026-04-18 10:56 51.10199 -0.62409 7415 ft 344 kts 255°
2026-04-18 10:56 51.09494 -0.65949 8979 ft 326 kts 252°
2026-04-18 10:57 51.08825 -0.69294 10578 ft 310 kts 252°
2026-04-18 10:57 51.08178 -0.72545 11410 ft 313 kts 252°
2026-04-18 10:57 51.07516 -0.75867 12107 ft 315 kts 252°
2026-04-18 10:57 51.06847 -0.79196 12818 ft 317 kts 252°
2026-04-18 10:58 51.06173 -0.82542 13514 ft 318 kts 252°
2026-04-18 10:58 51.05495 -0.85898 14170 ft 320 kts 252°
2026-04-18 10:58 51.04812 -0.89277 14779 ft 322 kts 252°
2026-04-18 10:58 51.04124 -0.92674 15369 ft 324 kts 252°
2026-04-18 10:59 51.03429 -0.96088 15955 ft 326 kts 252°
2026-04-18 10:59 51.02728 -0.99520 16528 ft 328 kts 251°
2026-04-18 10:59 51.02020 -1.02973 17121 ft 330 kts 251°
2026-04-18 10:59 51.01309 -1.06449 17688 ft 332 kts 252°
2026-04-18 11:00 51.00596 -1.09955 18240 ft 334 kts 252°
2026-04-18 11:00 50.99878 -1.13472 18755 ft 337 kts 251°
2026-04-18 11:00 50.99144 -1.17028 19229 ft 339 kts 251°
2026-04-18 11:00 50.98404 -1.20587 19703 ft 341 kts 251°
2026-04-18 11:01 50.97658 -1.24172 20169 ft 343 kts 251°
2026-04-18 11:01 50.96910 -1.27768 20595 ft 345 kts 251°
2026-04-18 11:01 50.96006 -1.31312 21070 ft 347 kts 242°
2026-04-18 11:02 50.92887 -1.37203 21928 ft 357 kts 220°
2026-04-18 11:02 50.90814 -1.39421 22359 ft 361 kts 217°
2026-04-18 11:02 50.88708 -1.41601 22794 ft 363 kts 217°
2026-04-18 11:02 50.86589 -1.43804 23181 ft 365 kts 217°
2026-04-18 11:03 50.84491 -1.45986 23568 ft 367 kts 217°
2026-04-18 11:03 50.82342 -1.48220 23943 ft 370 kts 217°
2026-04-18 11:03 50.80191 -1.50456 24281 ft 372 kts 217°
2026-04-18 11:03 50.78025 -1.52705 24618 ft 373 kts 217°
2026-04-18 11:04 50.75846 -1.54962 24945 ft 375 kts 217°
2026-04-18 11:04 50.73655 -1.57228 25270 ft 377 kts 217°
2026-04-18 11:04 50.71459 -1.59495 25593 ft 378 kts 217°
2026-04-18 11:04 50.69244 -1.61774 25914 ft 380 kts 217°
2026-04-18 11:05 50.67028 -1.64051 26222 ft 382 kts 217°
2026-04-18 11:05 50.64801 -1.66339 26525 ft 383 kts 217°
2026-04-18 11:05 50.62560 -1.68641 26800 ft 385 kts 217°
2026-04-18 11:05 50.60306 -1.70953 27068 ft 388 kts 217°
2026-04-18 11:06 50.58036 -1.73278 27363 ft 390 kts 217°
2026-04-18 11:06 50.55755 -1.75612 27664 ft 391 kts 217°
2026-04-18 11:06 50.53467 -1.77955 27960 ft 393 kts 217°
2026-04-18 11:06 50.51171 -1.80308 28251 ft 395 kts 217°
2026-04-18 11:07 50.48862 -1.82666 28541 ft 397 kts 217°
2026-04-18 11:07 50.46543 -1.85030 28813 ft 398 kts 217°
2026-04-18 11:07 50.44216 -1.87400 29097 ft 400 kts 217°
2026-04-18 11:07 50.41880 -1.89783 29336 ft 401 kts 217°
2026-04-18 11:08 50.39540 -1.92167 29567 ft 403 kts 217°
2026-04-18 11:08 50.37176 -1.94569 29770 ft 405 kts 217°
2026-04-18 11:08 50.34799 -1.96980 29999 ft 407 kts 217°
2026-04-18 11:08 50.32417 -1.99392 30240 ft 409 kts 217°
2026-04-18 11:09 50.30022 -2.01811 30458 ft 410 kts 217°
2026-04-18 11:09 50.27620 -2.04231 30727 ft 410 kts 217°
2026-04-18 11:09 50.25227 -2.06635 31021 ft 409 kts 217°
2026-04-18 11:09 50.22828 -2.09026 31324 ft 408 kts 216°
2026-04-18 11:10 50.21237 -2.10591 31511 ft 408 kts 216°
2026-04-18 11:10 50.18836 -2.12929 31794 ft 407 kts 216°
2026-04-18 11:10 50.16426 -2.15259 32042 ft 406 kts 216°
2026-04-18 11:10 50.14024 -2.17574 32329 ft 405 kts 216°
2026-04-18 11:11 50.11630 -2.19884 32628 ft 404 kts 216°
2026-04-18 11:11 50.09243 -2.22194 32905 ft 403 kts 216°
2026-04-18 11:11 50.06863 -2.24501 33189 ft 402 kts 216°
2026-04-18 11:11 50.04493 -2.26797 33477 ft 402 kts 216°
2026-04-18 11:12 50.02122 -2.29092 33752 ft 401 kts 216°
2026-04-18 11:12 49.99751 -2.31384 34004 ft 401 kts 216°
2026-04-18 11:12 49.97382 -2.33671 34281 ft 401 kts 216°
2026-04-18 11:12 49.95016 -2.35955 34483 ft 400 kts 216°
2026-04-18 11:13 49.92649 -2.38238 34688 ft 400 kts 216°
2026-04-18 11:13 49.90288 -2.40515 34885 ft 400 kts 216°
2026-04-18 11:13 49.87923 -2.42795 35055 ft 400 kts 216°
2026-04-18 11:13 49.85551 -2.45077 35251 ft 400 kts 216°